[Iaude] MPEC V108: 2016 VQ4 [a=2.50,e=0.58,i=2.2,H=25.5]

mpec at si.edu mpec at si.edu
Fri Nov 11 10:57:33 EST 2016


M.P.E.C. 2016-V108                               Issued 2016 Nov. 11, 15:53 UT
 
     The Minor Planet Electronic Circulars contain information on unusual
         minor planets and routine data on comets.  They are published
    on behalf of Division F of the International Astronomical Union by the
          Minor Planet Center, Smithsonian Astrophysical Observatory,
                          Cambridge, MA 02138, U.S.A.

             Prepared using the Tamkin Foundation Computer Network

                              MPC at CFA.HARVARD.EDU
            URL http://www.minorplanetcenter.net/    ISSN 1523-6714


                                   2016 VQ4
 
Observations:
     K16V04Q* C2016 11 09.32954 02 31 37.64 +24 27 56.3          19.9 VqEV108G96
     K16V04Q  C2016 11 09.33384 02 31 40.12 +24 28 18.9                qEV108G96
     K16V04Q  C2016 11 09.33813 02 31 42.54 +24 28 42.5          20.1 VqEV108G96
     K16V04Q  C2016 11 09.34247 02 31 45.05 +24 29 07.6          20.0 VqEV108G96
     K16V04Q  C2016 11 09.36798 02 31 59.48 +24 31 27.2          20.2 VqEV108G96
     K16V04Q  C2016 11 09.37048 02 32 00.93 +24 31 39.6          20.1 VqEV108G96
     K16V04Q  C2016 11 09.37302 02 32 02.35 +24 31 52.7          20.1 VqEV108G96
     K16V04Q  C2016 11 09.37551 02 32 03.75 +24 32 06.4          21.1 VqEV108G96
     K16V04Q  C2016 11 10.21376502 40 53.58 +25 49 55.0          21.0 VtEV108H01
     K16V04Q  C2016 11 10.22032902 40 57.47 +25 50 32.0          21.3 VtEV108H01
     K16V04Q  C2016 11 10.23197602 41 04.40 +25 51 37.4          21.0 VtEV108H01
     K16V04Q  C2016 11 10.23798202 41 07.97 +25 52 11.2          21.2 VtEV108H01
     K16V04Q  C2016 11 11.30258 02 52 44.11 +27 29 52.2          20.5 RoEV108926
     K16V04Q  C2016 11 11.30572 02 52 46.07 +27 30 08.4          20.3 RoEV108926
     K16V04Q  C2016 11 11.30884 02 52 48.02 +27 30 26.2          20.5 RoEV108926
 
Observer details:
926 Tenagra II Observatory.  Observers M. Schwartz, P. R. Holvorcem.  Measurer
    M. Schwartz.  0.81-m f/7 Ritchey-Chretien + CCD.
G96 Mt. Lemmon Survey.  Observer R. G. Matheny.  Measurers E. J. Christensen,
    D. C. Fuls, A. R. Gibbs, A. D. Grauer, J. A. Johnson, R. A. Kowalski,
    S. M. Larson, G. J. Leonard, R. G. Matheny, R. L. Seaman, F. C. Shelly.
    1.5-m reflector + 10K CCD.
H01 Magdalena Ridge Observatory, Socorro.  Observers W. H. Ryan, E. V. Ryan.
    Measurer W. H. Ryan.  2.4-m f/8.9 reflector + CCD.
 
Orbital elements:
2016 VQ4                                                 Earth MOID = 0.0699 AU
Epoch 2016 July 31.0 TT = JDT 2457600.5                 MPC
M 332.61928              (2000.0)            P               Q
n   0.24910514     Peri.   25.96505     +0.55052922     -0.83457860
a   2.5015792      Node    30.64330     +0.75896728     +0.49043814
e   0.5771955      Incl.    2.23794     +0.34768699     +0.25089638
P   3.96           H   25.5           G   0.15           U   8
Residuals in seconds of arc
161109 G96  0.6-  0.4+    161109 G96  0.3+  0.0     161110 H01  0.0   0.1-
161109 G96  0.1+  0.6-    161109 G96  0.1-  0.7-    161110 H01  0.1+  0.1+
161109 G96  0.0   0.6-    161109 G96  0.4-  0.5-    161111 926  0.0   0.2+
161109 G96  0.8+  0.8+    161110 H01  0.0   0.0     161111 926  0.0   0.6-
161109 G96  0.0   1.2+    161110 H01  0.2-  0.0     161111 926  0.0   0.4+

Ephemeris:
2016 VQ4                 a,e,i = 2.50, 0.58, 2                   q = 1.0577
Date    TT    R. A. (2000) Decl.     Delta      r     Elong.  Phase     V
2016 10 12    00 26 35.8 -01 14 38   0.1605  1.1545   166.2    11.9    22.6
...
2016 10 27    01 02 12.0 +07 20 59   0.1035  1.0934   163.4    15.1    21.6
...
2016 11 04    01 45 40.6 +16 30 50   0.08234 1.0723   167.5    11.5    20.9
...
2016 11 10    02 38 34.8 +25 30 23   0.07319 1.0624   170.1     9.2    20.6
2016 11 11    02 49 22.1 +27 02 25   0.07238 1.0613   169.7     9.6    20.6
2016 11 12    03 00 41.2 +28 32 33   0.07178 1.0603   169.0    10.3    20.6
...
2016 11 18    04 16 22.3 +35 57 39   0.07295 1.0576   160.8    17.9    20.9
...
2016 11 26    05 51 51.6 +39 39 00   0.08560 1.0626   150.9    26.8    21.5
...
2016 12 11    07 24 15.5 +37 13 29   0.1295  1.0970   148.4    28.0    22.5

A. U. Tomatic                (C) Copyright 2016 MPC           M.P.E.C. 2016-V108




More information about the Iaude mailing list